National Weather Service Raw Text Product

Displaying AFOS PIL: RWRMI Received: 2017-08-18 21:00 UTC


262 
ASUS43 KDTX 182101
RWRMI 
MICHIGAN HOURLY REGIONAL WEATHER ROUNDUP
NATIONAL WEATHER SERVICE DETROIT/PONTIAC MI
500 PM EDT FRI AUG 18 2017

NOTE: "FAIR" INDICATES FEW OR NO CLOUDS BELOW 12,000 FEET WITH NO
SIGNIFICANT WEATHER AND/OR OBSTRUCTION TO VISIBILITY.

MIZ047>049-052>055-059>063-066>070-074>076-081>083-182200-
SOUTHEAST LOWER MICHIGAN
  
CITY           SKY/WX    TMP DP  RH WIND       PRES   REMARKS
ADRIAN         CLOUDY    77  63  61 W14       29.84S                  
ALMA           CLOUDY    71  60  67 W15G24    29.81R                  
ANN ARBOR      MOSUNNY   78  61  55 W18G24    29.81S                  
BAD AXE        CLOUDY    71  62  73 W12       29.75R                  
CARO           CLOUDY    73  61  68 W8G16     29.76S                  
DETROIT CITY   CLOUDY    77  61  57 W13       29.79S                  
DETROIT        PTSUNNY   79  61  53 W18       29.81R                  
FLINT          CLOUDY    72  60  66 W17G24    29.80R                  
GROSSE ILE     CLOUDY    78  63  59 W12       29.79S                  
HILLSDALE      CLOUDY    73  59  60 W10       29.86R                  
HOWELL         CLOUDY    73  61  65 W15G21    29.82R                  

CITY           SKY/WX    TMP DP  RH WIND       PRES   REMARKS
JACKSON        CLOUDY    74  60  61 W10       29.83S                  
LAMBERTVILLE   PTSUNNY   77  62  58 W8G20     29.82S                  
LANSING        CLOUDY    72  59  63 W18G28    29.83R                  
LAPEER         CLOUDY    72  61  67 W7G17     29.79S                  
MASON          CLOUDY    74  60  62 W14G22    29.84R                  
MONROE         CLOUDY    78  63  58 W15G26    29.81S                  
MT. CLEMENS    PTSUNNY   76  62  62 W12G22    29.78R                  
PONTIAC        CLOUDY    74  60  61 W17G24    29.80R                  
PORT HOPE        N/A     73  63  70 W12G23    29.71R                  
PORT HURON     CLOUDY    75  63  64 W7        29.77S                  
TRI CITIES     CLOUDY    71  63  75 W15       29.78R                  
MIDLAND        CLOUDY    71  60  69 W9G22     29.77R                  
TROY           CLOUDY    77  60  55 W10G21    29.81R                  
SAGINAW HB     CLOUDY    72  61  68 W12G18    29.77R                  
$$
MIZ043>046-050>051-056>058-064>065-071>073-077>080-182200-
SOUTHWEST LOWER MICHIGAN
  
CITY           SKY/WX    TMP DP  RH WIND       PRES   REMARKS
BATTLE CREEK   CLOUDY    73  62  68 W14       29.86S                  
BENTON HARBOR  SUNNY     75  59  57 W9        29.86F                  
BIG RAPIDS     CLOUDY    68  59  73 W8G20     29.80S                  
COLDWATER      PTSUNNY   75  60  58 W12       29.86S                  
FREMONT        CLOUDY    69  62  77 W10       29.82S                  
HOLLAND        CLOUDY    70  60  70 W12G20    29.86S                  
GRAND RAPIDS   CLOUDY    71  60  68 W14       29.84R                  
IONIA          CLOUDY    71  60  67 W13       29.83R                  
KALAMAZOO      CLOUDY    74  58  57 W14G22    29.86S                  
LUDINGTON      CLOUDY    67  60  77 NW5       29.81S                  
MARSHALL       CLOUDY    73  61  66 W13       29.85S                  
MOUNT PLEASANT CLOUDY    72  60  67 W7        29.78S                  
MUSKEGON       CLOUDY    71  60  68 W10       29.84R                  
SOUTH HAVEN    MOSUNNY   74  61  62 W10       29.86S                  
$$
MIZ016>042-182200-
NORTHERN LOWER MICHIGAN
  
CITY           SKY/WX    TMP DP  RH WIND       PRES   REMARKS
ALPENA         CLOUDY    67  61  81 W9        29.72R                  
BEAVER ISLAND  CLOUDY    64  58  81 W10G24    29.75S                  
BELLAIRE       RAIN      64  60  88 CALM      29.77S                  
CADILLAC       CLOUDY    66  61  85 W8        29.80R                  
CHARLEVOIX     CLOUDY    64  59  81 W16       29.79R                  
FRANKFORT      CLOUDY    69  62  77 NW8       29.80S                  
GAYLORD        CLOUDY    61  58  90 W12G22    29.76S                  
GRAYLING       CLOUDY    63  60  90 W8        29.78S FOG              
HARBOR SPRINGS CLOUDY    63  59  87 W3G9      29.75R                  
HOUGHTON LAKE  CLOUDY    65  60  84 W12       29.78S                  
MANISTEE       CLOUDY    68  60  75 W9        29.80S                  
OSCODA         CLOUDY    72  61  68 NW15G24   29.71R                  
PELLSTON       CLOUDY    64  58  80 W15G25    29.74R                  
ROGERS CITY    CLOUDY    65  59  82 W10G22    29.72R                  
TRAVERSE CITY  CLOUDY    67  59  75 W12G18    29.77R                  
$$
MIZ007>008-015-182200-
EASTERN UPPER MICHIGAN
  
CITY           SKY/WX    TMP DP  RH WIND       PRES   REMARKS
KINROSS        CLOUDY    62  58  86 W14       29.69R                  
MACKINAC ISLAN CLOUDY    63  60  93 W20G25    29.71R                  
NEWBERRY       CLOUDY    60  59  97 W10G18    29.72R                  
S. S. MARIE    CLOUDY    61  59  93 W13G23    29.68R FOG              
MUNISING         N/A     63  59  87 NW10G23   29.76R                  
$$
MIZ004>006-011>014-085-182200-
CENTRAL UPPER MICHIGAN
  
CITY           SKY/WX    TMP DP  RH WIND       PRES   REMARKS
MANISTIQUE     CLOUDY    63  55  75 NW14G22   29.75S                  
ESCANABA       CLOUDY    66  57  72 NW12      29.79R                  
MENOMINEE      CLOUDY    72  59  63 NW9       29.79S                  
SAWYER-GWINN   CLOUDY    61  55  82 N14G20    29.79R                  
$$
MIZ001>003-009>011-084-182200-
WESTERN UPPER MICHIGAN
  
CITY           SKY/WX    TMP DP  RH WIND       PRES   REMARKS
IRON MOUNTAIN  CLOUDY    66  54  65 NW14G24   29.81R                  
HOUGHTON       CLOUDY    65  55  70 W14       29.80R                  
COPPER HARBOR    N/A     60  54  80 N14       29.77R                  
IRONWOOD       MOSUNNY   67  53  61 W7        29.86S                  
$$

ABBREVIATIONS USED IN REMARKS
   TC - TEMPERATURE IN CELSIUS
  WCI - WIND CHILL INDEX
   HX - HEAT INDEX
  VSB - VISIBILITY